CAPE
509 580 782 855 756 622 506 334 173 109 74 44 0 0 0 0 0 0 0 4 0 0 51 60 103 59 3 2 0 55 503 445 410 243 57 84 173 234 132 63 51 6 0
414 536 695 865 840 742 614 401 245 118 59 20 0 0 0 0 0 0 0 0 0 1 0 17 0 54 26 0 0 0 337 336 428 207 40 55 111 157 171 28 0 0 0
329 515 645 831 868 821 653 499 314 215 105 17 0 0 0 0 0 0 0 0 0 0 0 0 0 0 40 0 0 0 523 498 333 390 124 8 36 127 142 81 0 0 0
327 491 608 801 830 811 642 567 347 250 144 46 28 14 0 0 0 0 0 0 2 2 0 0 0 0 0 0 0 0 546 538 328 364 299 139 42 90 172 142 0 0 0
91 308 607 713 818 768 660 594 476 232 171 128 138 75 17 5 0 0 0 0 0 3 2 0 0 0 0 0 0 81 536 438 392 466 319 280 153 29 85 65 16 0 0
59 168 446 705 786 773 712 647 548 374 187 183 158 195 53 28 3 0 1 0 0 0 0 0 0 0 0 0 0 371 535 462 431 400 157 260 97 183 131 70 83 13 4
13 112 355 589 688 744 734 667 609 488 358 283 273 218 148 50 38 51 9 0 0 0 0 0 0 0 0 0 6 571 501 487 98 14 55 97 176 57 86 97 22 21 13
3 119 280 471 576 676 718 696 628 533 403 353 336 241 134 75 108 99 16 0 0 0 3 28 49 33 8 20 451 612 541 339 32 0 0 0 17 27 25 64 82 21 29
0 59 289 430 495 591 650 706 576 522 420 338 310 214 141 153 177 129 56 32 0 8 18 93 71 19 25 397 605 291 192 23 0 0 0 0 0 0 2 51 51 25 15
0 6 163 304 363 465 580 590 524 557 430 291 277 237 252 259 259 149 108 51 26 148 311 491 450 300 357 480 96 1 0 0 0 0 0 0 0 0 0 9 52 14 7
0 0 43 145 331 398 419 492 486 501 437 213 228 210 195 210 220 180 137 92 7 110 417 233 417 381 436 74 0 0 0 0 0 0 0 0 0 0 0 0 0 0 0
0 0 28 171 254 374 377 396 397 559 433 235 271 201 135 107 119 143 119 24 5 84 153 59 298 226 130 1 0 0 0 0 0 0 0 0 0 0 0 0 0 0 0
19 45 88 162 291 372 459 572 488 623 527 329 256 149 33 67 53 25 58 60 31 132 149 70 227 120 1 0 0 0 0 0 0 0 0 0 0 0 0 0 0 0 0
67 176 180 160 241 375 517 340 570 637 523 425 274 213 37 1 10 16 51 106 150 169 147 157 93 33 0 0 0 0 0 0 0 0 0 0 0 0 0 0 0 0 0
47 123 182 215 232 311 354 507 583 594 504 423 312 118 7 19 9 55 147 72 157 180 136 61 11 0 0 0 0 0 0 0 0 0 0 0 0 0 0 0 0 0 0
35 115 161 224 219 294 424 567 564 581 474 452 289 47 34 36 95 139 67 143 190 169 3 0 0 0 0 0 0 0 0 0 0 0 0 0 0 0 0 0 0 0 0
25 123 175 237 215 260 328 559 585 530 475 499 297 68 29 78 145 122 74 164 167 142 78 5 1 0 0 0 0 0 0 0 0 0 0 0 0 0 0 0 0 0 0
41 136 247 235 243 249 331 481 560 475 437 384 179 43 62 103 104 190 76 156 247 231 82 0 0 0 0 0 0 0 0 0 0 0 0 0 0 0 0 0 0 0 0
235 284 284 275 299 323 444 521 531 507 370 336 164 46 54 41 75 176 118 226 250 188 56 0 0 0 0 0 0 0 0 0 0 0 0 0 0 0 0 0 0 0 0
511 485 439 370 377 433 506 593 617 564 411 329 164 42 52 105 105 81 129 208 254 186 21 0 0 0 0 0 0 0 0 0 0 0 0 0 0 0 0 0 0 0 0
631 594 572 493 444 538 588 680 682 675 483 302 101 49 68 103 134 81 69 60 193 169 45 1 0 0 0 0 0 0 0 0 0 0 0 0 0 0 0 0 0 0 0
607 592 632 628 466 554 634 700 785 659 494 208 188 65 26 84 163 137 65 33 230 235 72 0 0 0 0 0 0 0 0 0 0 0 0 0 0 0 0 0 0 0 0
535 614 667 611 489 511 622 744 781 624 430 259 195 141 42 37 76 59 21 15 135 234 95 0 0 0 0 0 0 0 0 0 0 0 0 0 0 0 0 0 0 0 0
285 586 590 599 607 537 590 709 570 540 474 334 240 185 168 83 85 87 46 28 104 246 171 46 2 0 0 0 0 0 0 0 0 0 0 0 0 0 0 0 0 0 0
207 486 702 739 744 718 650 537 526 508 603 599 530 377 290 211 166 96 108 141 143 257 254 145 18 0 0 0 0 0 0 0 0 0 0 0 0 0 0 0 0 0 0
634 823 1005 1090 1066 1021 922 726 663 694 729 827 884 843 705 503 391 238 264 133 159 124 139 62 20 0 0 0 0 0 0 0 0 0 0 0 0 0 0 0 0 0 0
CIN
-191 -201 -184 -171 -184 -197 -202 -194 -188 -247 -258 -246 -0 -0 -0 -0 -0 -0 -0 -108 -0 -0 -50 -53 -48 -74 -78 -92 -0 -92 -46 -41 -53 -63 -119 -112 -89 -86 -130 -243 -263 -333 -0
-185 -199 -191 -194 -196 -175 -193 -206 -188 -217 -231 -278 -0 -0 -0 -0 -0 -0 -0 -0 -0 -44 -0 -64 -0 -64 -78 -0 -0 -0 -48 -52 -50 -55 -132 -104 -84 -75 -77 -317 -0 -0 -0
-160 -192 -183 -187 -201 -196 -195 -182 -192 -200 -201 -279 -0 -0 -0 -0 -0 -0 -0 -0 -0 -66 -0 -0 -0 -0 -69 -40 -0 -0 -29 -32 -46 -54 -71 -227 -157 -94 -83 -174 -0 -0 -0
-168 -171 -183 -185 -198 -208 -217 -192 -168 -156 -172 -162 -161 -179 -0 -0 -0 -0 -0 -0 -160 -157 -0 -0 -0 -0 -0 -0 -0 -0 -28 -31 -29 -47 -53 -111 -211 -142 -83 -111 -0 -0 -0
-179 -151 -198 -177 -171 -220 -224 -192 -167 -148 -154 -126 -81 -64 -99 -80 -0 -0 -0 -0 -0 -151 -149 -0 -0 -0 -0 -0 -0 -60 -26 -38 -37 -31 -39 -47 -119 -275 -200 -210 -63 -4 -0
-208 -188 -211 -188 -198 -223 -224 -205 -172 -148 -141 -137 -83 -63 -49 -69 -36 -0 -80 -0 -0 -0 -0 -0 -0 -0 -0 -0 -0 -40 -35 -39 -29 -36 -118 -67 -183 -121 -170 -240 -235 -22 -26
-318 -256 -221 -213 -215 -213 -220 -202 -162 -141 -139 -130 -113 -78 -73 -64 -78 -78 -60 -0 -0 -0 -0 -0 -0 -0 -0 -0 -65 -25 -34 -32 -115 -98 -253 -209 -152 -283 -258 -251 -335 -23 -22
-80 -288 -229 -214 -235 -232 -231 -196 -176 -156 -161 -144 -136 -99 -96 -87 -67 -52 -105 -0 -0 -0 -107 -69 -87 -114 -130 -85 -35 -26 -31 -48 -240 -0 -0 -27 -385 -369 -350 -292 -274 -18 -8
-0 -346 -282 -272 -274 -256 -237 -206 -197 -179 -195 -174 -144 -122 -106 -73 -57 -46 -83 -79 -0 -92 -73 -67 -88 -129 -108 -43 -29 -53 -72 -253 -0 -0 -0 -0 -0 -0 -101 -338 -347 -16 -25
-0 -96 -332 -295 -304 -297 -268 -216 -208 -179 -200 -195 -144 -118 -86 -43 -40 -39 -58 -77 -97 -47 -34 -28 -35 -54 -50 -40 -91 -198 -0 -0 -0 -0 -0 -0 -0 -0 -0 -261 -367 -35 -26
-0 -0 -381 -360 -338 -311 -297 -230 -206 -201 -189 -205 -149 -116 -91 -44 -36 -37 -37 -51 -56 -52 -21 -41 -36 -48 -48 -117 -0 -0 -0 -0 -0 -0 -0 -0 -0 -0 -0 -0 -0 -0 -0
-0 -0 -411 -400 -380 -346 -294 -228 -230 -199 -178 -198 -129 -88 -77 -60 -47 -44 -44 -90 -132 -66 -57 -104 -55 -64 -86 -128 -0 -0 -0 -0 -0 -0 -0 -0 -0 -0 -0 -0 -0 -0 -0
-387 -451 -456 -411 -384 -354 -310 -231 -221 -181 -153 -148 -121 -92 -96 -69 -52 -62 -60 -74 -90 -45 -62 -114 -54 -79 -117 -0 -0 -0 -0 -0 -0 -0 -0 -0 -0 -0 -0 -0 -0 -0 -0
-338 -431 -423 -447 -388 -363 -298 -279 -227 -169 -141 -125 -103 -58 -58 -4 -63 -67 -68 -60 -52 -45 -58 -65 -85 -141 -0 -0 -0 -0 -0 -0 -0 -0 -0 -0 -0 -0 -0 -0 -0 -0 -0
-344 -414 -437 -421 -377 -368 -331 -276 -203 -193 -156 -106 -72 -83 -76 -72 -88 -77 -59 -70 -60 -53 -67 -90 -80 -0 -0 -0 -0 -0 -0 -0 -0 -0 -0 -0 -0 -0 -0 -0 -0 -0 -0
-355 -406 -440 -391 -369 -314 -316 -248 -173 -180 -144 -95 -91 -141 -115 -110 -93 -82 -97 -63 -52 -51 -168 -0 -0 -0 -0 -0 -0 -0 -0 -0 -0 -0 -0 -0 -0 -0 -0 -0 -0 -0 -0
-377 -368 -405 -381 -346 -303 -272 -161 -184 -206 -166 -108 -120 -160 -186 -150 -105 -112 -118 -76 -67 -86 -92 -93 -27 -0 -0 -0 -0 -0 -0 -0 -0 -0 -0 -0 -0 -0 -0 -0 -0 -0 -0
-356 -387 -391 -350 -327 -336 -278 -176 -231 -217 -162 -154 -191 -238 -234 -179 -154 -129 -150 -116 -68 -73 -89 -0 -0 -0 -0 -0 -0 -0 -0 -0 -0 -0 -0 -0 -0 -0 -0 -0 -0 -0 -0
-338 -379 -329 -317 -346 -297 -250 -189 -287 -188 -206 -174 -225 -293 -255 -231 -198 -155 -178 -129 -119 -105 -127 -0 -0 -0 -0 -0 -0 -0 -0 -0 -0 -0 -0 -0 -0 -0 -0 -0 -0 -0 -0
-352 -313 -283 -321 -342 -341 -301 -243 -251 -193 -211 -193 -221 -334 -289 -230 -208 -223 -184 -152 -112 -117 -234 -28 -0 -0 -0 -0 -0 -0 -0 -0 -0 -0 -0 -0 -0 -0 -0 -0 -0 -0 -0
-302 -276 -253 -225 -247 -311 -292 -243 -244 -207 -204 -222 -273 -357 -340 -245 -223 -251 -246 -244 -123 -99 -205 -196 -0 -0 -0 -0 -0 -0 -0 -0 -0 -0 -0 -0 -0 -0 -0 -0 -0 -0 -0
-320 -265 -205 -190 -260 -311 -261 -252 -188 -248 -256 -327 -215 -375 -439 -309 -246 -235 -298 -292 -114 -86 -202 -122 -0 -0 -0 -0 -0 -0 -0 -0 -0 -0 -0 -0 -0 -0 -0 -0 -0 -0 -0
-341 -301 -222 -228 -332 -323 -281 -210 -213 -304 -321 -329 -274 -221 -398 -436 -334 -330 -372 -383 -198 -102 -214 -0 -0 -0 -0 -0 -0 -0 -0 -0 -0 -0 -0 -0 -0 -0 -0 -0 -0 -0 -0
-332 -312 -309 -312 -326 -390 -342 -242 -341 -371 -318 -296 -371 -338 -270 -340 -346 -341 -372 -395 -314 -168 -216 -348 -75 -0 -0 -0 -0 -0 -0 -0 -0 -0 -0 -0 -0 -0 -0 -0 -0 -0 -0
-432 -340 -288 -267 -321 -374 -353 -402 -407 -397 -314 -265 -300 -326 -296 -295 -289 -335 -341 -312 -301 -210 -205 -289 -457 -0 -0 -0 -0 -0 -0 -0 -0 -0 -0 -0 -0 -0 -0 -0 -0 -0 -0
-519 -404 -371 -316 -318 -357 -349 -383 -421 -392 -325 -277 -271 -272 -255 -256 -245 -246 -216 -333 -317 -357 -321 -398 -446 -0 -0 -0 -0 -0 -0 -0 -0 -0 -0 -0 -0 -0 -0 -0 -0 -0 -0
Wind_Speed
11 12 9 8 7 7 8 8 9 8 6 1 2 9 10 9 17 18 14 20 22 20 19 19 20 19 19 21 22 19 9 15 7 12 18 16 18 21 23 24 25 26 27
11 13 9 7 8 10 10 10 10 9 7 4 1 10 10 14 12 12 17 10 21 22 22 22 22 21 21 21 21 21 11 12 14 13 13 12 11 17 20 23 25 26 27
17 15 13 12 7 9 9 9 10 9 6 4 1 8 11 17 15 18 19 17 24 21 25 24 24 23 21 21 21 20 17 16 15 16 15 14 14 15 8 20 23 24 26
18 14 15 11 13 11 7 6 7 7 4 5 3 1 1 4 17 18 22 20 25 25 27 28 26 24 22 22 21 20 17 15 17 16 16 14 15 15 15 15 21 23 25
19 18 19 18 15 5 6 5 5 6 4 7 5 4 2 5 16 16 23 23 28 27 27 30 28 26 24 24 22 21 18 16 17 16 16 15 15 15 15 15 17 21 23
19 21 17 12 9 6 3 3 5 5 5 7 6 6 6 3 10 16 19 24 27 28 30 26 25 25 26 26 23 21 18 17 16 16 16 16 15 14 15 15 15 16 18
19 20 19 12 8 8 4 4 6 5 5 8 7 6 7 2 6 12 19 24 24 24 20 11 26 25 25 25 23 21 19 18 17 16 17 16 14 14 14 14 14 14 15
17 15 18 18 12 11 7 7 7 6 5 5 5 4 4 3 7 12 23 26 24 24 20 17 24 25 24 23 23 21 20 18 18 17 17 17 14 14 13 13 14 15 15
18 18 16 16 13 11 11 13 9 7 4 3 0 2 2 4 8 12 18 17 19 22 20 20 24 25 25 24 23 22 20 19 18 18 17 17 13 13 13 13 14 13 13
11 15 17 16 13 11 7 7 8 8 3 1 2 5 6 6 11 19 14 15 19 20 15 16 20 19 22 22 20 18 18 18 18 17 17 7 13 14 14 13 13 12 13
11 11 16 16 12 8 7 6 6 3 1 1 3 5 6 8 14 23 22 17 21 22 17 19 20 22 19 19 17 18 18 17 16 15 13 13 14 14 14 14 13 12 13
10 10 13 17 16 10 8 8 4 3 2 1 4 5 3 5 15 21 21 19 19 20 19 21 22 21 19 18 19 18 18 17 14 13 12 13 14 15 13 14 13 13 14
4 9 9 14 13 11 10 9 6 5 2 3 3 7 3 3 18 22 19 17 16 17 10 22 22 18 17 17 18 18 18 15 14 12 11 12 16 15 16 16 17 16 16
5 5 6 7 13 12 11 7 6 6 5 3 3 6 2 8 15 15 13 10 13 11 6 5 19 20 18 18 16 19 16 14 14 14 18 13 13 15 16 17 17 17 17
5 9 6 10 13 11 8 7 6 10 6 3 3 5 3 4 8 7 6 8 9 9 5 4 9 12 21 19 18 18 17 13 15 16 14 12 13 14 16 16 16 16 16
8 10 8 10 14 14 11 9 10 11 8 10 11 6 9 4 5 4 8 6 10 10 10 12 9 21 21 19 19 19 16 16 15 10 9 11 13 15 16 17 16 16 15
6 10 11 15 16 16 11 12 13 13 14 19 19 23 17 20 8 4 3 1 10 11 13 10 9 24 19 19 21 19 17 15 6 6 8 11 13 16 18 19 19 18 16
7 9 11 13 16 13 11 14 16 20 27 25 26 27 22 23 19 19 16 2 13 26 28 29 28 22 21 25 24 18 14 5 5 6 10 11 15 17 18 18 19 19 19
11 6 8 13 14 17 15 17 17 28 27 29 31 29 29 26 23 30 30 28 25 28 28 28 27 24 24 30 27 16 7 12 3 6 7 12 14 16 17 18 19 20 21
7 6 8 12 13 15 16 20 18 31 30 31 33 33 33 32 31 30 30 29 30 29 29 28 28 28 30 31 29 16 10 5 5 6 7 11 13 14 15 15 17 18 18
10 6 12 15 16 13 13 21 21 26 32 33 34 33 32 31 30 26 28 31 29 28 29 29 30 30 32 31 25 19 5 6 13 15 12 13 12 13 13 13 14 14 15
6 12 12 14 11 15 15 19 21 19 26 32 33 30 32 33 27 19 23 31 31 32 32 31 31 31 32 30 25 23 22 10 11 12 10 13 13 12 11 12 12 12 12
2 8 9 9 8 14 17 18 20 12 34 20 26 32 25 29 31 27 30 32 31 32 33 32 32 32 32 27 27 24 23 15 9 6 7 9 11 10 9 10 10 10 10
7 2 4 8 7 8 15 22 9 9 14 18 13 16 27 31 32 32 32 34 34 32 34 32 32 31 25 23 11 13 8 9 8 4 2 7 7 7 7 7 8 8 7
13 8 3 3 8 10 9 12 6 7 7 7 5 7 7 19 35 34 30 28 29 23 25 30 22 18 23 22 15 12 10 8 7 4 4 1 1 4 4 4 5 5 5
14 12 12 12 11 11 13 13 8 6 6 9 11 11 10 14 23 33 34 33 33 13 12 9 10 6 6 6 15 16 13 10 8 7 6 6 6 6 6 5 4 4 4
Wind_Direction
159 157 151 141 121 119 125 131 138 136 130 173 260 287 284 292 279 277 283 269 265 276 286 283 273 284 298 314 321 303 242 84 255 157 350 349 360 14 24 36 36 31 32
181 172 164 155 151 145 142 138 143 141 139 144 182 294 284 285 288 285 277 303 270 275 276 276 266 273 289 304 309 314 241 292 284 261 230 205 210 348 5 35 43 43 44
188 178 176 172 165 159 150 146 145 142 138 131 59 309 289 277 276 269 273 286 264 278 266 265 263 269 286 290 291 295 276 281 267 292 275 198 178 154 262 12 35 42 41
191 188 183 184 175 170 155 142 142 143 131 138 127 166 257 265 275 268 267 279 259 260 256 252 259 269 280 275 276 280 262 244 271 259 268 182 127 143 134 50 41 41 40
185 184 182 180 177 219 162 152 144 141 123 140 137 153 255 291 280 276 266 267 245 258 266 255 255 267 273 265 265 270 254 239 257 253 241 229 293 67 126 97 91 42 52
178 180 180 181 179 241 231 198 157 141 125 134 142 149 161 283 283 272 268 266 266 266 257 264 266 267 268 259 256 261 243 243 231 232 240 192 148 122 116 89 99 85 81
170 173 178 187 195 198 207 182 167 155 136 136 134 146 156 236 274 277 270 263 265 274 283 293 255 262 268 252 251 252 241 239 244 242 227 206 134 101 100 82 91 96 95
167 169 175 173 172 174 181 167 165 160 149 143 139 140 160 243 273 277 262 254 261 263 272 277 251 248 252 248 242 248 243 240 234 245 252 249 109 113 103 89 98 82 76
179 178 172 171 168 167 165 163 162 163 158 158 146 311 272 252 267 272 269 272 274 266 269 270 248 247 242 242 246 245 254 248 239 251 266 248 62 88 95 104 109 81 73
163 170 173 174 173 177 175 161 158 162 172 220 298 307 293 260 263 261 267 271 266 266 287 273 255 262 249 253 264 268 267 255 259 269 278 22 82 66 76 104 111 72 63
177 164 166 169 166 167 170 165 156 172 204 247 318 316 299 269 259 252 258 265 264 260 273 261 259 250 264 261 270 259 264 263 277 288 332 37 51 68 113 92 84 92 58
147 156 158 156 159 160 162 165 161 161 148 13 332 324 301 264 254 250 254 260 261 264 266 261 252 252 262 260 252 267 260 269 293 317 16 24 21 159 124 75 72 76 79
97 130 140 153 153 154 154 159 156 150 111 358 357 308 290 213 249 244 250 256 262 265 283 242 245 251 257 262 259 260 254 276 289 326 16 55 203 81 63 62 68 73 71
173 160 154 162 153 153 151 153 141 135 106 34 1 287 231 250 250 246 252 261 264 273 277 260 245 247 255 257 261 243 257 276 278 272 213 279 331 64 60 69 65 65 59
164 176 179 158 155 142 138 139 129 134 101 50 328 275 173 213 244 238 247 262 275 269 271 274 276 270 240 248 243 244 249 277 255 238 256 308 346 2 67 79 68 65 62
175 171 186 162 159 151 138 132 132 135 107 115 120 122 127 159 160 207 253 273 271 255 263 267 270 233 239 241 238 236 253 252 250 289 319 348 2 11 30 55 53 65 70
171 171 182 166 161 155 138 136 136 133 136 135 133 139 128 135 139 141 248 8 262 257 261 271 276 233 242 238 226 234 243 247 336 332 12 20 18 42 48 47 55 62 59
197 186 176 164 161 154 141 132 138 136 151 147 149 146 137 143 138 138 136 87 258 223 212 198 208 233 236 221 216 239 251 323 316 26 44 39 47 55 58 61 61 63 54
155 220 181 158 151 152 147 142 139 156 159 164 170 159 155 150 146 168 171 178 226 218 217 218 221 229 227 203 210 246 290 256 320 34 31 56 64 73 68 67 70 67 63
116 145 158 153 151 150 145 145 144 170 172 173 176 181 173 171 170 169 177 187 196 211 214 218 222 222 212 196 173 134 268 279 87 60 41 81 94 90 79 78 77 75 76
118 135 146 158 158 156 149 156 153 167 177 178 182 179 178 177 175 168 176 201 222 226 225 219 214 207 201 204 164 149 135 118 128 132 123 125 115 106 108 94 91 89 87
127 139 143 156 166 162 161 163 167 160 165 177 180 175 180 187 176 161 169 210 224 218 214 210 213 211 203 188 170 166 163 142 135 136 126 135 135 124 106 110 105 99 95
254 147 154 159 178 161 166 167 171 155 213 161 171 184 170 180 186 178 187 224 229 225 217 214 215 208 219 246 182 172 170 159 151 133 128 130 133 124 106 121 120 110 105
283 216 242 259 238 190 168 176 165 167 160 164 165 166 179 185 192 193 196 211 225 235 218 206 207 210 183 175 173 262 182 178 169 162 134 138 132 128 115 109 119 121 116
273 275 218 214 263 252 242 261 184 187 199 203 229 186 200 174 210 208 193 188 190 179 186 198 181 173 182 182 174 175 183 194 187 240 287 222 155 154 150 138 137 137 122
278 269 272 279 277 271 264 262 246 214 226 250 257 259 254 258 257 241 240 242 244 253 186 184 181 209 237 187 179 181 184 195 213 250 217 208 208 200 198 198 193 190 189